Location: El Peñón
(10.3719°N, 67.3319°W)
Time: 03:49:42
(UTC+00:00)

Cosmos 1452 Rocket - Pass Details

Date: 13 June 2024
Orbit: 765 x 773 km, 74.1° (Epoch: 21 July)

Event Time Altitude Azimuth Distance (km) Brightness Sun altitude
Rises 23:01:00 0° 340° (NNW) 3,226 7.5 -3.0°
Reaches altitude 10° 23:03:24 10° 337° (NNW) 2,302 6.8 -3.5°
Maximum altitude 23:08:32 59° 258° (WSW) 885 4.2 -4.7°
Drops below altitude 10° 23:13:41 10° 179° (S) 2,308 5.7 -5.8°
Sets 23:16:05 0° 176° (S) 3,235 6.4 -6.4°
